Weather History for KFYJ - February, 2013

Change the Weather History Date:

Sunday, February 3, 2013

  Actual Average (KRIC) Record (KRIC)
Temperature  
Mean Temperature 34 °F 39 °F  
Max Temperature 41 °F 49 °F 77 °F (1989)
Min Temperature 28 °F 29 °F 6 °F (1966)
Degree Days  
Heating Degree Days 30 26  
Month to date heating degree days 78  
Since 1 July heating degree days 2339  
Cooling Degree Days 0 0  
Month to date cooling degree days 0  
Year to date cooling degree days 0  
Moisture  
Dew Point 27 °F    
Average Humidity 70    
Maximum Humidity 90    
Minimum Humidity 47    
Precipitation  
Precipitation 0.00 in 0.10 in 2.65 in (1920)
Month to date precipitation 0.30  
Year to date precipitation 3.34  
Snow  
Snow 0.00 in 0.10 in 2.50 in (1961)
Month to date snowfall 0.4  
Since 1 July snowfall 6.6  
Snow Depth -    
Sea Level Pressure  
Sea Level Pressure 29.93 in    
Wind  
Wind Speed 5 mph (West)    
Max Wind Speed 14 mph    
Max Gust Speed 23 mph    
Visibility 10 miles    
Events      
T = Trace of Precipitation, MM = Missing Value Source: NWS Daily Summary

Daily Weather History Graph

Daily Weather History Graph

Search for Another Location

Airport or City:

Trip Planner

Search our weather history database for the weather conditions in past years. The results will help you decide how hot, cold, wet, or windy it might be!

Date:

Astronomy

Feb. 03, 2013 Rise Set
Actual Time 7:08 AM EST 5:33 PM EST
Civil Twilight 6:41 AM EST 6:01 PM EST
Nautical Twilight 6:10 AM EST 6:32 PM EST
Astronomical Twilight 5:39 AM EST 7:02 PM EST
Moon 12:33 AM EST (2/3) 11:10 AM EST (2/3)
Length of Visible Light 11h 19m
Length of Day
10h 25m
Waning Gibbous, 49% of the Moon is Illuminated
Feb 3
Waning Gibbous
Feb 10
New
Feb 17
First Quarter
Feb 25
Full
Mar 4
Last Quarter

Hourly Weather History & Observations

Time (EST) Temp. Windchill Dew Point Humidity Pressure Visibility Wind Dir Wind Speed Gust Speed Precip Events Conditions
12:15 AM 36.9 °F 33.1 °F 18.5 °F 47% 30.04 in 10.0 mi SSW 4.6 mph - N/A   Overcast
12:35 AM 37.9 °F 32.7 °F 19.4 °F 47% 30.03 in 10.0 mi SSW 6.9 mph - N/A   Overcast
12:55 AM 38.7 °F 30.5 °F 25.5 °F 59% 30.01 in 10.0 mi West 13.8 mph 23.0 mph N/A   Overcast
1:15 AM 38.7 °F 33.6 °F 26.1 °F 61% 30.00 in 10.0 mi SW 6.9 mph - N/A   Overcast
1:35 AM 38.5 °F 32.7 °F 27.5 °F 65% 29.99 in 10.0 mi SSW 8.1 mph - N/A   Overcast
1:55 AM 37.9 °F 32.1 °F 29.3 °F 71% 29.98 in 10.0 mi SSW 8.1 mph - N/A   Overcast
2:15 AM 37.4 °F 32.8 °F 30.2 °F 75% 29.97 in 10.0 mi SSW 5.8 mph - N/A   Mostly Cloudy
2:35 AM 37.4 °F 32.8 °F 30.9 °F 77% 29.96 in 10.0 mi SSW 5.8 mph - N/A   Mostly Cloudy
2:55 AM 37.4 °F 33.8 °F 31.1 °F 78% 29.96 in 10.0 mi SSW 4.6 mph - N/A   Overcast
3:15 AM 36.7 °F 34.1 °F 30.2 °F 77% 29.95 in 10.0 mi SW 3.5 mph - N/A   Overcast
3:35 AM 35.6 °F 32.8 °F 30.0 °F 80% 29.95 in 10.0 mi WSW 3.5 mph - N/A   Scattered Clouds
3:55 AM 35.6 °F 31.7 °F 30.0 °F 80% 29.94 in 10.0 mi WSW 4.6 mph - N/A   Clear
4:15 AM 35.1 °F 31.0 °F 29.8 °F 81% 29.95 in 10.0 mi WSW 4.6 mph - N/A   Clear
4:35 AM 35.6 °F 30.7 °F 30.0 °F 80% 29.94 in 10.0 mi West 5.8 mph - N/A   Mostly Cloudy
4:55 AM 33.8 °F 28.6 °F 25.9 °F 73% 29.95 in 10.0 mi NNW 5.8 mph - N/A   Scattered Clouds
5:15 AM 32.9 °F 28.5 °F 24.8 °F 72% 29.95 in 10.0 mi North 4.6 mph - N/A   Clear
5:35 AM 32.0 °F 28.7 °F 24.4 °F 74% 29.95 in 10.0 mi NNW 3.5 mph - N/A   Clear
5:55 AM 32.0 °F - 24.8 °F 75% 29.95 in 10.0 mi Calm Calm - N/A   Clear
6:15 AM 30.9 °F 27.5 °F 25.2 °F 79% 29.95 in 10.0 mi NNW 3.5 mph - N/A   Scattered Clouds
6:35 AM 30.9 °F - 25.7 °F 81% 29.95 in 10.0 mi Calm Calm - N/A   Mostly Cloudy
6:55 AM 30.4 °F - 26.1 °F 84% 29.95 in 10.0 mi Calm Calm - N/A   Scattered Clouds
7:15 AM 30.0 °F - 26.2 °F 86% 29.95 in 10.0 mi Calm Calm - N/A   Scattered Clouds
7:35 AM 30.0 °F - 26.6 °F 87% 29.95 in 10.0 mi Calm Calm - N/A   Overcast
7:55 AM 30.6 °F 27.1 °F 27.1 °F 87% 29.96 in 10.0 mi WNW 3.5 mph - N/A   Mostly Cloudy
8:15 AM 31.5 °F - 28.2 °F 88% 29.96 in 10.0 mi Calm Calm - N/A   Scattered Clouds
8:35 AM 32.0 °F - 28.9 °F 88% 29.97 in 10.0 mi Calm Calm - N/A   Mostly Cloudy
8:55 AM 32.2 °F 28.9 °F 28.9 °F 88% 29.96 in 10.0 mi North 3.5 mph - N/A   Overcast
9:35 AM 33.3 °F - 28.2 °F 82% 29.95 in 10.0 mi Calm Calm - N/A   Overcast
9:55 AM 34.2 °F - 28.0 °F 78% 29.95 in 10.0 mi Calm Calm - N/A   Overcast
10:15 AM 36.0 °F 33.3 °F 27.5 °F 71% 29.95 in 10.0 mi NE 3.5 mph - N/A   Overcast
10:35 AM 37.8 °F 32.5 °F 27.9 °F 67% 29.95 in 10.0 mi ENE 6.9 mph - N/A   Mostly Cloudy
10:55 AM 38.7 °F - 27.3 °F 64% 29.94 in 10.0 mi Calm Calm - N/A   Scattered Clouds
11:15 AM 38.7 °F - 26.4 °F 61% 29.94 in 10.0 mi Calm Calm - N/A   Mostly Cloudy
11:35 AM 39.2 °F 37.0 °F 26.6 °F 61% 29.93 in 10.0 mi SSW 3.5 mph - N/A   Overcast
11:55 AM 37.9 °F 33.5 °F 27.5 °F 66% 29.93 in 10.0 mi West 5.8 mph - N/A   Overcast
12:15 PM 37.6 °F - 26.8 °F 65% 29.93 in 10.0 mi Calm Calm - N/A   Overcast
12:35 PM 37.4 °F 32.8 °F 28.2 °F 69% 29.92 in 10.0 mi West 5.8 mph - N/A   Overcast
12:55 PM 38.7 °F - 28.6 °F 67% 29.90 in 10.0 mi Calm Calm - N/A   Overcast
1:15 PM 39.9 °F 36.7 °F 28.6 °F 64% 29.88 in 10.0 mi WNW 4.6 mph - N/A   Overcast
1:35 PM 39.4 °F 36.1 °F 28.0 °F 64% 29.87 in 10.0 mi SW 4.6 mph - N/A   Overcast
1:55 PM 39.2 °F - 28.4 °F 65% 29.87 in 10.0 mi Calm Calm - N/A   Mostly Cloudy
2:15 PM 39.7 °F 37.6 °F 28.6 °F 64% 29.86 in 10.0 mi West 3.5 mph - N/A   Mostly Cloudy
2:35 PM 40.1 °F 36.9 °F 28.6 °F 63% 29.86 in 10.0 mi West 4.6 mph - N/A   Scattered Clouds
2:55 PM 40.1 °F - 28.4 °F 63% 29.86 in 10.0 mi Calm Calm - N/A   Mostly Cloudy
3:15 PM 40.3 °F - 28.6 °F 63% 29.86 in 10.0 mi Calm Calm - N/A   Mostly Cloudy
3:35 PM 41.0 °F 38.0 °F 29.1 °F 63% 29.87 in 10.0 mi NW 4.6 mph - N/A   Mostly Cloudy
3:55 PM 41.2 °F 36.6 °F 28.6 °F 61% 29.87 in 10.0 mi West 6.9 mph - N/A   Mostly Cloudy
4:15 PM 41.4 °F 37.6 °F 27.9 °F 59% 29.86 in 10.0 mi West 5.8 mph - N/A   Mostly Cloudy
4:35 PM 41.4 °F 36.8 °F 27.1 °F 57% 29.86 in 10.0 mi WNW 6.9 mph - N/A   Scattered Clouds
4:55 PM 40.5 °F 38.4 °F 26.8 °F 58% 29.86 in 10.0 mi WNW 3.5 mph - N/A   Scattered Clouds
5:15 PM 39.7 °F - 27.3 °F 61% 29.86 in 10.0 mi Calm Calm - N/A   Scattered Clouds
5:35 PM 39.2 °F - 28.2 °F 65% 29.86 in 10.0 mi Calm Calm - N/A   Mostly Cloudy
5:55 PM 35.8 °F - 27.5 °F 72% 29.88 in 10.0 mi Calm Calm - N/A   Scattered Clouds
6:15 PM 36.0 °F - 27.9 °F 72% 29.88 in 10.0 mi Calm Calm - N/A   Mostly Cloudy
6:35 PM 35.2 °F - 28.4 °F 76% 29.88 in 10.0 mi Calm Calm - N/A   Overcast
6:55 PM 34.3 °F 31.4 °F 28.4 °F 79% 29.89 in 10.0 mi East 3.5 mph - N/A   Overcast
7:15 PM 34.0 °F - 27.5 °F 77% 29.89 in 10.0 mi Calm Calm - N/A   Scattered Clouds
7:35 PM 32.9 °F - 27.3 °F 80% 29.90 in 10.0 mi Calm Calm - N/A   Scattered Clouds
7:55 PM 31.8 °F - 27.1 °F 83% 29.90 in 10.0 mi Calm Calm - N/A   Mostly Cloudy
8:15 PM 30.4 °F - 26.8 °F 86% 29.90 in 10.0 mi Calm Calm - N/A   Scattered Clouds
8:35 PM 28.2 °F - 25.5 °F 90% 29.91 in 10.0 mi Calm Calm - N/A   Mostly Cloudy
8:55 PM 37.0 °F 30.4 °F 30.2 °F 76% 29.91 in 10.0 mi WSW 9.2 mph - N/A   Overcast
9:15 PM 40.1 °F 33.2 °F 29.3 °F 65% 29.92 in 10.0 mi West 11.5 mph - N/A   Overcast
9:35 PM 39.7 °F 31.9 °F 28.2 °F 63% 29.92 in 10.0 mi West 13.8 mph 19.6 mph N/A   Scattered Clouds
9:55 PM 39.6 °F 32.5 °F 27.1 °F 61% 29.93 in 10.0 mi West 11.5 mph 18.4 mph N/A   Scattered Clouds
10:15 PM 38.3 °F 32.5 °F 27.1 °F 64% 29.93 in 10.0 mi West 8.1 mph - N/A   Scattered Clouds
10:35 PM 38.3 °F 31.9 °F 26.4 °F 62% 29.93 in 10.0 mi West 9.2 mph 17.3 mph N/A   Scattered Clouds
10:55 PM 38.1 °F 30.2 °F 25.0 °F 59% 29.94 in 10.0 mi West 12.7 mph 18.4 mph N/A   Clear
11:15 PM 37.4 °F 29.3 °F 23.5 °F 57% 29.95 in 10.0 mi West 12.7 mph 16.1 mph N/A   Clear
11:35 PM 37.4 °F 29.3 °F 22.1 °F 54% 29.95 in 10.0 mi West 12.7 mph 20.7 mph N/A   Clear
11:55 PM 36.9 °F 29.6 °F 21.9 °F 55% 29.97 in 10.0 mi West 10.4 mph - N/A   Clear